Volver al catálogo

STARLINK-36905

ActivoComunicacionesVLEO
NORAD 68176·PAYLOAD·🇺🇸 United States

Lanzado Mar 14, 2026 desde Vandenberg Space Force Base

Loading…

Próximos Pases (próximas 24 horas)

TLE

ActualizadoSource: CelesTrak SupGP

Época: Sep 14, 2026, 23:28 UTC

1 68176C 26050K   26257.97826389  .00043458  00000+0  12843-2 0  2575
2 68176  53.1571 103.7145 0001230  86.5304  59.8421 15.34361064    18

Sigue STARLINK-36905 en tiempo real con AllMySat

Download on the App Store